Voltar ao catálogo

STARLINK-30776

AtivoComunicaçõesVLEO
NORAD 58136·PAYLOAD·🇺🇸 United States

Lançado Oct 22, 2023 de Cape Canaveral Space Force Station

Loading…

Próximas Passagens (próximas 24 horas)

TLE

AtualizadoSource: CelesTrak SupGP

Época: Sep 14, 2026, 21:14 UTC

1 58136C 23162U   26257.88520833  .00355180  00000+0  34231-2 0  2579
2 58136  42.9842 119.9954 0029495 250.0266 220.7432 15.64820143    17

Acompanhe STARLINK-30776 em tempo real com AllMySat

Download on the App Store